Weather in Vykatnoy

Russia / Khanty-Mansi Autonomous Okrug — Yugra     60°38′51″N   69°33′24″E
temp.,
°C
wind,
m/s
gust,
m/s
humid.,
%
clouds,
%
prec.,
mm/h
press.,
hPa
HPBL,
m
12 may, wed
wed1223:00+13nnw8107980 0.4 1023654
02:00+8nnw797788 0.0 1024746
05:00+8n796899 0.0 1025854
08:00+9n6751100 0.0 1026660
11:00+12nnw5530100 0.0 1026995
14:00+15nw4527100 0.0 10241397
17:00+15wnw2638100 0.0 10231580
20:00+11wnw5780100 0.4 1022418
13 may, thu
thu1323:00+10w3593100 3.0 1021257
02:00+11w3590100 0.8 1020228
05:00+11wnw3691100 0.8 1019189
08:00+14nw7981100 0.0 1019554
11:00+16nnw101153100 0.1 10211396
14:00+17n9104019 0.0 10221767
17:00+15nne883973 0.0 10251357
20:00+13ne46455 0.0 1026148
14 may, fri
fri1423:00+10se335110 0.0 102616
02:00+9ssw45575 0.0 102666
05:00+9ssw611650 0.0 1025207
08:00+15sw913480 0.0 1022526
11:00+23wsw1013400 0.0 10191057
14:00+26w1114335 0.0 10172806
17:00+27w10143164 0.0 10163234
20:00+22w611455 0.0 1015162
15 may, sat
sat1523:00+19wnw45539 0.0 101644
02:00+17wsw58596 0.0 101592
05:00+17wsw7126675 0.1 1014282
08:00+21w8125458 0.0 1014838
11:00+25w1012405 0.0 10122054
14:00+27w10133038 0.0 10113442
17:00+26wnw91432100 0.0 10113099
20:00+23w5740100 0.0 101086
16 may, sun
sun1623:00+19wnw5852100 0.0 1009114
02:00+17wnw61072100 0.6 1009293
05:00+14n8119039 0.8 1012555
08:00+14nnw897252 0.0 1015812
11:00+15n5658100 0.0 1016977
14:00+17n455180 0.0 10171451
17:00+17ne4352100 0.0 1017955
20:00+14e896181 0.0 1016500